Albany, GA

1:37 AM EST on January 20, 2017 (GMT -0500)
Southwest Georgia Regional

Weather History for KABY - November, 2014

Change the Weather History Date:

Saturday, November 29, 2014

  Actual Average Record
Temperature  
Mean Temperature 48 °F 55 °F  
Max Temperature 64 °F 67 °F 83 °F (1990)
Min Temperature 31 °F 43 °F 22 °F (1955)
Degree Days  
Heating Degree Days 17 11  
Month to date heating degree days 355 208  
Since 1 July heating degree days 394 258  
Cooling Degree Days 0 0  
Month to date cooling degree days 10 31  
Year to date cooling degree days 2490 2534  
Moisture  
Dew Point 33 °F    
Average Humidity 61    
Maximum Humidity 96    
Minimum Humidity 26    
Precipitation  
Precipitation 0.00 in 0.16 in 0.51 in (2008)
Month to date precipitation 3.02  
Year to date precipitation 44.65  
Sea Level Pressure  
Sea Level Pressure 30.32 in    
Wind  
Wind Speed 2 mph (South)    
Max Wind Speed 9 mph    
Max Gust Speed 13 mph    
Visibility 9 miles    
Events      
T = Trace of Precipitation, MM = Missing Value Source: NWS Daily Summary

Daily Weather History Graph

Daily Weather History Graph

Search for Another Location

Airport or City:

Trip Planner

Search our weather history database for the weather conditions in past years. The results will help you decide how hot, cold, wet, or windy it might be!

Date:

Astronomy

Nov. 29, 2014 Rise Set
Actual Time 7:16 AM EST 5:33 PM EST
Civil Twilight 6:50 AM EST 5:59 PM EST
Nautical Twilight 6:20 AM EST 6:29 PM EST
Astronomical Twilight 5:50 AM EST 6:59 PM EST
Moon 1:02 PM EST (11/29) 12:06 AM EST (11/29)
Length of Visible Light 11h 09m
Length of Day
10h 16m
First Quarter, 53% of the Moon is Illuminated
Nov 29
First Quarter
Dec 6
Full
Dec 14
Last Quarter
Dec 21
New
Dec 28
First Quarter

Hourly Weather History & Observations

Time (EST) Temp. Dew Point Humidity Pressure Visibility Wind Dir Wind Speed Gust Speed Precip Events Conditions
12:53 AM 33.1 °F 30.0 °F 89% 30.33 in 10.0 mi Calm Calm - N/A   Clear
1:53 AM 33.1 °F 30.0 °F 89% 30.32 in 9.0 mi Calm Calm - N/A   Clear
2:53 AM 32.0 °F 30.0 °F 92% 30.32 in 8.0 mi Calm Calm - N/A   Clear
3:53 AM 32.0 °F 30.0 °F 92% 30.32 in 8.0 mi Calm Calm - N/A   Clear
4:53 AM 32.0 °F 30.0 °F 92% 30.32 in 8.0 mi Calm Calm - N/A   Clear
5:53 AM 30.9 °F 28.9 °F 92% 30.32 in 7.0 mi Calm Calm - N/A   Clear
6:53 AM 30.9 °F 28.9 °F 92% 30.35 in 7.0 mi Calm Calm - N/A   Clear
7:53 AM 32.0 °F 30.9 °F 96% 30.36 in 6.0 mi Calm Calm - N/A   Clear
8:53 AM 41.0 °F 35.1 °F 79% 30.38 in 8.0 mi Calm Calm - N/A   Clear
9:53 AM 48.0 °F 37.0 °F 66% 30.38 in 10.0 mi South 5.8 mph - N/A   Clear
10:53 AM 53.1 °F 35.1 °F 50% 30.39 in 10.0 mi SSE 5.8 mph - N/A   Clear
11:53 AM 55.9 °F 34.0 °F 44% 30.37 in 10.0 mi Variable 3.5 mph - N/A   Clear
12:53 PM 60.1 °F 30.0 °F 32% 30.34 in 10.0 mi Variable 5.8 mph - N/A   Clear
1:53 PM 62.1 °F 28.0 °F 28% 30.30 in 10.0 mi SW 4.6 mph - N/A   Clear
2:53 PM 63.0 °F 28.0 °F 27% 30.28 in 10.0 mi South 8.1 mph - N/A   Clear
3:53 PM 64.0 °F 28.9 °F 27% 30.28 in 10.0 mi SSW 5.8 mph - N/A   Clear
4:53 PM 62.1 °F 30.9 °F 31% 30.27 in 10.0 mi SSW 5.8 mph - N/A   Clear
5:53 PM 52.0 °F 41.0 °F 66% 30.28 in 10.0 mi Calm Calm - N/A   Clear
6:53 PM 48.0 °F 39.0 °F 71% 30.29 in 10.0 mi Calm Calm - N/A   Clear
7:53 PM 46.0 °F 39.0 °F 76% 30.29 in 10.0 mi Calm Calm - N/A   Clear
8:53 PM 43.0 °F 39.0 °F 86% 30.30 in 10.0 mi Calm Calm - N/A   Clear
9:53 PM 42.1 °F 37.9 °F 85% 30.30 in 8.0 mi Calm Calm - N/A   Clear
10:53 PM 41.0 °F 37.0 °F 86% 30.31 in 10.0 mi Calm Calm - N/A   Clear
11:53 PM 39.9 °F 37.0 °F 89% 30.31 in 10.0 mi Calm Calm - N/A   Clear